Location: Vigo di Fassa
(46.4167°N, 11.6667°E)
Time: 14:53:47
(UTC+00:00)

Cosmos 1500 - Pass Details

Date: 03 March 2021
Orbit: 499 x 517 km, 82.5° (Epoch: 17 April)

Event Time Altitude Azimuth Distance (km) Brightness Sun altitude
Rises 18:46:59 0° 203° (SSW) 2,580 6.9 -18.8°
Reaches altitude 10° 18:49:10 10° 210° (SSW) 1,700 6.0 -19.1°
Maximum altitude 18:52:43 43° 283° (WNW) 716 4.4 -19.7°
Drops below altitude 10° 18:56:19 10° 356° (N) 1,715 6.0 -20.3°
Sets 18:58:32 0° 3° (N) 2,605 6.9 -20.7°
